Stations météo

réclame
Mon MeteoGroup
Harstena, Suède (2563): Température de l'air & dewpoint: 14.06.2018 17:00:00 - 20.06.2018 17:00:00 (CEST)Harstena, Suède (2563): Vitesse du vent & gusts: 14.06.2018 17:00:00 - 20.06.2018 17:00:00 (CEST)Harstena, Suède (2563): Direction du vent: 14.06.2018 17:00:00 - 20.06.2018 17:00:00 (CEST)Harstena, Suède (2563): reduced air pressure: 14.06.2018 17:00:00 - 20.06.2018 17:00:00 (CEST)Harstena, Suède (2563): visibility: 14.06.2018 17:00:00 - 20.06.2018 17:00:00 (CEST)Harstena, Suède (2563): Quantités de précipitations: 14.06.2018 17:00:00 - 20.06.2018 17:00:00 (CEST)
Date & Time tt [°C] td [°C] ff [km/h] ff [knt] fx [km/h] fx [knt] dd ppp [hPa] vv [km] rr [mm]
20.06.2018 17:00:00 15,1 9,5 6 4 34 19 WSW 1010,8 25 0,0
20.06.2018 16:00:00 15,8 7,6 15 8 37 20 WSW 1011,5 50 0,0
20.06.2018 15:00:00 17,5 4,4 19 10 37 20 SW 1011,9 50 0,0
20.06.2018 14:00:00 19,2 2,1 15 8 31 17 WSW 1012,0 47 0,0
20.06.2018 13:00:00 18,9 3,1 14 8 32 18 W 1012,8 45 0,0
20.06.2018 12:00:00 17,8 3,3 18 10 32 18 W 1013,3 40 0,0
20.06.2018 11:00:00 17,4 4,7 15 8 39 21 WSW 1013,2 43 0,0
20.06.2018 10:00:00 15,5 5,4 21 12 43 23 W 1013,3 34 0,0
20.06.2018 09:00:00 14,2 6,5 21 11 43 23 W 1013,3 31 0,0
20.06.2018 08:00:00 13,1 6,9 22 12 43 23 W 1013,2 27 0,0
20.06.2018 07:00:00 12,5 7,0 18 10 43 23 W 1013,2 27 0,0
20.06.2018 06:00:00 12,3 6,8 19 10 49 27 W 1012,9 26 0,0
20.06.2018 05:00:00 12,1 6,4 23 13 49 27 W 1012,7 28 0,0
20.06.2018 04:00:00 11,8 6,1 19 10 48 26 W 1012,4 32 0,0
20.06.2018 03:00:00 12,4 5,8 21 11 46 25 W 1012,2 39 0,0
20.06.2018 02:00:00 12,8 5,5 26 14 52 28 W 1012,0 40 0,0
20.06.2018 01:00:00 13,2 5,6 25 13 52 28 WSW 1011,8 38 0,0
20.06.2018 00:00:00 13,8 4,9 24 13 48 26 W 1011,6 47 0,0
19.06.2018 23:00:00 14,5 4,2 21 11 48 26 W 1011,6 48 0,0
19.06.2018 22:00:00 15,7 3,8 23 12 51 28 W 1010,9 47 0,0
19.06.2018 21:00:00 16,9 3,6 15 8 51 28 W 1010,2 50 0,0
19.06.2018 20:00:00 18,0 2,7 20 11 51 28 W 1009,6 49 0,0
19.06.2018 19:00:00 19,3 1,7 26 14 54 29 W 1009,2 50 0,0
19.06.2018 18:00:00 19,7 0,4 29 16 54 29 W 1008,5 50 0,0
19.06.2018 17:00:00 20,0 1,4 27 15 58 31 W 1008,3 45 0,0
19.06.2018 16:00:00 20,7 0,5 27 15 61 33 W 1008,0 50 0,0
19.06.2018 15:00:00 20,7 3,0 27 15 61 33 W 1007,8 36 0,0
19.06.2018 14:00:00 19,5 2,4 31 17 56 30 W 1007,4 42 0,0
19.06.2018 13:00:00 18,2 8,5 24 13 67 36 W 1007,5 39 0,3
19.06.2018 12:00:00 13,5 8,8 36 19 67 36 W 1007,9 18 0,0
19.06.2018 11:00:00 17,7 6,5 31 17 62 33 WSW 1007,1 43 0,0
19.06.2018 10:00:00 17,0 5,9 34 18 53 29 WSW 1007,1 29 0,0
19.06.2018 09:00:00 16,1 6,5 28 15 53 29 WSW 1007,2 38 0,0
19.06.2018 08:00:00 15,4 6,4 26 14 50 27 WSW 1007,2 46 0,0
19.06.2018 07:00:00 16,0 9,7 23 12 45 24 WSW 1007,3 50 0,0
19.06.2018 06:00:00 16,2 10,9 18 10 37 20 WSW 1007,2 50 0,0
19.06.2018 05:00:00 15,7 11,9 23 13 42 23 SW 1007,3 50 0,0
19.06.2018 04:00:00 15,7 12,2 23 12 42 23 SW 1008,2 50 0,0
19.06.2018 03:00:00 16,4 11,7 21 11 40 22 SW 1008,7 50 0,0
19.06.2018 02:00:00 15,8 12,0 19 10 29 16 SSW 1009,5 49 0,0
19.06.2018 01:00:00 16,0 10,8 16 8 27 15 SSW 1009,9 50 0,0
19.06.2018 00:00:00 16,3 9,9 17 9 27 15 SW 1010,7 50 0,0
18.06.2018 23:00:00 16,6 9,5 16 9 28 15 SW 1011,4 50 0,0
18.06.2018 22:00:00 17,7 8,5 10 6 32 18 SW 1011,8 50 0,0
18.06.2018 21:00:00 18,7 8,6 11 6 32 18 WSW 1011,4 50 0,0
18.06.2018 20:00:00 20,2 6,9 11 6 34 19 WSW 1011,4 50 0,0
18.06.2018 19:00:00 20,6 6,2 15 8 34 19 WSW 1011,9 50 0,0
18.06.2018 18:00:00 20,1 5,7 14 7 29 16 W 1011,8 50 0,0
18.06.2018 17:00:00 20,1 6,4 13 7 27 14 WSW 1012,5 50 0,0
18.06.2018 16:00:00 20,6 7,6 16 8 34 18 WSW 1013,0 50 0,0
18.06.2018 15:00:00 20,4 7,7 13 7 34 19 SW 1013,3 43 0,0
18.06.2018 14:00:00 18,1 7,5 18 10 35 19 WSW 1013,5 50 0,0
18.06.2018 13:00:00 17,8 6,6 21 11 35 19 W 1013,5 50 0,0
18.06.2018 12:00:00 18,0 7,4 13 7 30 16 SW 1013,4 50 0,0
18.06.2018 11:00:00 17,4 7,2 14 8 33 18 WSW 1013,5 46 0,0
18.06.2018 10:00:00 17,2 7,8 14 7 35 19 WSW 1013,4 44 0,0
18.06.2018 09:00:00 15,8 7,8 16 8 35 19 WSW 1013,3 49 0,0
18.06.2018 08:00:00 15,3 9,0 16 9 29 16 SW 1013,5 42 0,0
18.06.2018 07:00:00 14,6 9,2 13 7 30 16 WSW 1013,4 48 0,0
18.06.2018 06:00:00 13,9 8,9 16 9 30 16 WSW 1013,2 49 0,0
18.06.2018 05:00:00 13,4 9,3 14 8 27 15 SW 1013,0 50 0,0
18.06.2018 04:00:00 12,9 9,0 7 4 23 12 WSW 1013,2 50 0,0
18.06.2018 03:00:00 13,5 8,6 10 6 29 15 WSW 1013,1 50 0,0
18.06.2018 02:00:00 13,9 8,3 11 6 29 15 W 1013,0 50 0,0
18.06.2018 01:00:00 14,2 9,4 10 5 31 17 W 1012,5 50 0,0
18.06.2018 00:00:00 14,9 11,1 15 8 31 17 WSW 1012,1 50 0,0
17.06.2018 23:00:00 15,4 11,6 13 7 30 16 WSW 1011,6 49 0,0
17.06.2018 22:00:00 15,9 14,6 16 9 22 12 SW 1011,3 27 0,0
17.06.2018 21:00:00 15,5 14,4 10 5 21 11 SSW 1010,9 19 0,0
17.06.2018 20:00:00 15,7 14,6 13 7 32 17 S 1010,5 16 0,0
17.06.2018 19:00:00 15,2 14,6 9 5 36 19 SSW 1010,4 12 3,4
17.06.2018 18:00:00 16,9 15,4 16 9 36 19 S 1010,5 15 0,0
17.06.2018 17:00:00 17,6 15,8 14 8 31 17 SSE 1010,8 20 0,4
17.06.2018 16:00:00 15,0 13,2 15 8 26 14 SE 1011,4 12 2,5
17.06.2018 15:00:00 17,2 14,8 10 6 26 14 S 1013,2 17 0,0
17.06.2018 14:00:00 18,1 12,5 12 6 19 10 SE 1012,6 47 0,0
17.06.2018 13:00:00 17,5 13,4 10 5 21 11 SE 1013,2 38 0,2
17.06.2018 12:00:00 16,6 14,4 10 6 21 11 S 1014,1 25 0,0
17.06.2018 11:00:00 16,9 13,8 11 6 21 12 SE 1014,2 45 0,0
17.06.2018 10:00:00 19,6 14,2 13 7 21 12 SE 1014,5 50 0,0
17.06.2018 09:00:00 17,0 14,3 10 6 16 9 SE 1014,8 43 0,0
17.06.2018 08:00:00 19,0 13,2 10 5 16 8 SSE 1014,8 45 0,0
17.06.2018 07:00:00 18,6 15,1 8 4 16 9 SSE 1015,3 28 0,0
17.06.2018 06:00:00 17,3 14,8 7 4 16 9 SSE 1015,4 21 0,0
17.06.2018 05:00:00 15,7 13,9 11 6 16 9 SE 1015,6 32 0,0
17.06.2018 04:00:00 15,5 13,0 11 6 17 9 ESE 1015,5 27 0,0
17.06.2018 03:00:00 15,0 11,6 9 5 17 9 SE 1015,9 18 0,0
17.06.2018 02:00:00 15,1 12,2 11 6 16 9 SSE 1016,3 50 0,0
17.06.2018 01:00:00 15,3 13,0 9 5 13 7 SE 1016,3 50 0,0
17.06.2018 00:00:00 15,1 11,9 6 3 9 5 SSW 1016,6 50 0,0
16.06.2018 23:00:00 14,7 12,0 5 3 11 6 SSE 1016,5 50 0,0
16.06.2018 22:00:00 15,5 11,9 6 3 11 6 SSW 1016,7 50 0,0
16.06.2018 21:00:00 15,7 11,1 7 4 13 7 S 1016,6 50 0,0
16.06.2018 20:00:00 16,6 11,3 8 4 17 9 S 1016,9 50 0,0
16.06.2018 19:00:00 17,2 11,0 7 4 17 9 S 1016,9 50 0,0
16.06.2018 18:00:00 18,4 10,2 10 5 17 9 SSE 1016,9 50 0,0
16.06.2018 17:00:00 19,5 9,9 8 5 23 12 SSE 1017,2 46 0,0
16.06.2018 16:00:00 19,8 9,7 10 6 23 12 SSE 1017,2 50 0,0
16.06.2018 15:00:00 20,2 9,1 11 6 18 10 SSE 1017,3 45 0,0
16.06.2018 14:00:00 21,2 8,8 10 5 19 10 SE 1017,5 41 0,0
16.06.2018 13:00:00 19,6 8,9 13 7 19 11 SE 1017,7 50 0,0
16.06.2018 12:00:00 18,9 8,8 12 7 19 11 ESE 1017,8 40 0,0
16.06.2018 11:00:00 19,2 7,0 11 6 18 10 E 1017,6 26 0,0
16.06.2018 10:00:00 19,6 6,0 6 3 19 11 N 1017,6 49 0,0
16.06.2018 09:00:00 18,5 6,3 10 5 19 11 N 1017,4 40 0,0
16.06.2018 08:00:00 17,0 6,8 10 6 18 10 N 1017,5 42 0,0
16.06.2018 07:00:00 15,7 6,9 9 5 16 9 NW 1017,4 47 0,0
16.06.2018 06:00:00 15,1 7,1 9 5 22 12 NW 1017,3 50 0,0
16.06.2018 05:00:00 14,6 6,8 10 6 24 13 NW 1017,0 46 0,0
16.06.2018 04:00:00 14,7 6,9 12 7 27 14 NW 1016,8 49 0,0
16.06.2018 03:00:00 15,3 6,8 14 8 27 15 NW 1016,4 50 0,0
16.06.2018 02:00:00 15,9 7,1 16 8 27 15 NW 1015,9 46 0,0
16.06.2018 01:00:00 16,6 6,5 12 6 21 12 WNW 1015,6 50 0,0
16.06.2018 00:00:00 17,4 6,9 10 5 19 10 NW 1015,2 42 0,0
15.06.2018 23:00:00 17,9 7,9 11 6 16 9 NW 1014,9 49 0,0
15.06.2018 22:00:00 17,3 12,4 6 4 20 11 W 1014,6 41 0,0
15.06.2018 21:00:00 17,7 13,0 10 6 24 13 SW 1014,2 36 0,0
15.06.2018 20:00:00 17,4 13,7 11 6 26 14 S 1013,9 32 0,0
15.06.2018 19:00:00 18,8 13,2 11 6 26 14 S 1013,8 17 0,0
15.06.2018 18:00:00 19,4 12,9 14 7 25 14 S 1013,7 44 0,0
15.06.2018 17:00:00 19,0 12,7 13 7 25 14 S 1013,8 38 0,0
15.06.2018 16:00:00 21,0 11,9 14 8 25 13 S 1013,6 49 0,0
15.06.2018 15:00:00 20,8 11,7 12 7 27 14 S 1013,6 41 0,0
15.06.2018 14:00:00 23,6 4,0 9 5 27 14 WSW 1013,2 32 0,0
15.06.2018 13:00:00 21,6 3,7 12 7 30 16 W 1013,1 43 0,0
15.06.2018 12:00:00 20,6 3,3 14 8 32 17 W 1012,7 33 0,0
15.06.2018 11:00:00 20,1 3,7 16 9 35 19 W 1012,3 39 0,0
15.06.2018 10:00:00 19,5 5,5 16 9 35 19 W 1011,7 41 0,0
15.06.2018 09:00:00 19,2 7,0 11 6 37 20 WSW 1011,2 38 0,0
15.06.2018 08:00:00 17,9 7,0 21 11 37 20 W 1010,8 45 0,0
15.06.2018 07:00:00 17,3 11,1 13 7 30 16 WSW 1010,2 47 0,0
15.06.2018 06:00:00 16,9 11,2 14 8 35 19 WSW 1009,7 48 0,0
15.06.2018 05:00:00 17,2 11,0 17 9 39 21 WSW 1009,2 48 0,0
15.06.2018 04:00:00 17,6 11,2 17 9 39 21 SW 1008,8 50 0,0
15.06.2018 03:00:00 17,9 11,0 19 11 35 19 SW 1008,6 50 0,0
15.06.2018 02:00:00 18,0 11,5 18 10 30 16 SW 1008,5 50 0,0
15.06.2018 01:00:00 17,4 11,4 16 9 24 13 SSW 1008,5 50 0,0
15.06.2018 00:00:00 17,8 11,4 14 8 22 12 SSW 1008,4 50 0,0
14.06.2018 23:00:00 18,4 10,2 14 8 21 11 SW 1008,4 50 0,0
14.06.2018 22:00:00 18,8 8,4 10 5 22 12 SW 1008,4 50 0,0
14.06.2018 21:00:00 18,2 9,3 10 6 31 17 SW 1008,2 49 0,0
14.06.2018 20:00:00 16,9 13,4 15 8 35 19 S 1007,9 45 0,0
14.06.2018 19:00:00 17,6 13,7 19 10 38 20 S 1007,8 36 0,0
14.06.2018 18:00:00 19,1 13,3 19 11 39 21 S 1008,1 46 0,0
14.06.2018 17:00:00 19,7 14,3 20 11 39 21 S 1008,6 33 0,0

tt = Température de l'air
td = dewpoint
ff = Vitesse du vent
fx = gusts
dd = Direction du vent
ppp = reduced air pressure
vv = visibility
rr = Quantités de précipitations

stations d'obs. à proximité